This is the latest recevied weather packets stored in our database for station/object N2XP-3. If no packets are shown the sender has not sent any weather packets the latest 10 day(s).
| Time | Temp. | Humidity | Pressure | Rain* | Wind** | Luminosity | Snow |
|---|---|---|---|---|---|---|---|
| 1778040853 | 17.78° C | 72% | 1007.8 hPa | 0 mm | 0 m/s | - | - |
| 1778040554 | 17.78° C | 71% | 1007.8 hPa | 0 mm | 1.34 m/s, 252° | - | - |
| 1778040250 | 17.78° C | 71% | 1007.8 hPa | 0 mm | 0.89 m/s, 249° | - | - |
| 1778039951 | 18.33° C | 71% | 1007.8 hPa | 0 mm | 1.79 m/s, 281° | - | - |
| 1778039640 | 17.78° C | 71% | 1007.8 hPa | 0 mm | 1.34 m/s, 236° | - | - |
| 1778039335 | 17.78° C | 70% | 1007.8 hPa | 0 mm | 0 m/s | - | - |
| 1778039036 | 17.78° C | 70% | 1007.8 hPa | 0 mm | 1.79 m/s, 280° | - | - |
| 1778038736 | 17.78° C | 70% | 1007.8 hPa | 0 mm | 1.79 m/s, 262° | - | - |
| 1778038425 | 18.33° C | 70% | 1007.8 hPa | 0 mm | 1.79 m/s, 243° | - | - |
| 1778038128 | 18.33° C | 69% | 1007.8 hPa | 0 mm | 1.79 m/s, 176° | - | - |
| 1778037824 | 18.33° C | 69% | 1007.8 hPa | 0 mm | 0.89 m/s, 270° | - | - |
| 1778037517 | 18.33° C | 69% | 1007.7 hPa | 0 mm | 1.79 m/s, 257° | - | - |
| 1778037217 | 18.33° C | 68% | 1007.8 hPa | 0 mm | 1.79 m/s, 243° | - | - |
| 1778036918 | 18.33° C | 67% | 1007.8 hPa | 0 mm | 2.24 m/s, 215° | - | - |
| 1778036657 | 18.33° C | 66% | 1007.8 hPa | 0 mm | 0.89 m/s, 297° | - | - |
| 1778036615 | 18.33° C | 66% | 1007.8 hPa | 0 mm | 0.89 m/s, 297° | - | - |
| 1778036315 | 18.89° C | 65% | 1007.8 hPa | 0 mm | 1.79 m/s, 300° | - | - |
| 1778036016 | 18.89° C | 65% | 1007.8 hPa | 0 mm | 0.89 m/s, 246° | - | - |
| 1778035712 | 18.89° C | 64% | 1007.8 hPa | 0 mm | 1.34 m/s, 270° | - | - |
| 1778035405 | 18.89° C | 63% | 1007.7 hPa | 0 mm | 0.89 m/s, 326° | - | - |
| 1778035289 | 18.89° C | 63% | 1007.7 hPa | 0 mm | 1.34 m/s, 246° | - | - |
| 1778035106 | 18.89° C | 63% | 1007.7 hPa | 0 mm | 1.34 m/s, 246° | - | - |
| 1778034798 | 18.89° C | 62% | 1007.7 hPa | 0 mm | 1.79 m/s, 245° | - | - |
| 1778034550 | 18.89° C | 61% | 1007.7 hPa | 0 mm | 0.89 m/s, 249° | - | - |
| 1778034499 | 18.89° C | 61% | 1007.7 hPa | 0 mm | 0.89 m/s, 249° | - | - |
* Rain latest hour (hover to see other rain measurements)
** Current wind speed in m/s (hover to see current wind gust speed)